CAPE
1055 1253 1436 1596 1984 1815 1539 1258 1000 909 936 949 1191 1265 1187 959 800 473 436 338 285 162 71 71 50 132 53 24 28 0 2 1 0 0 9 4 0 4 46 22 11 0 0
1520 1685 1763 2031 2075 1610 1115 1476 1243 1363 1343 1117 1261 1008 873 746 590 273 255 295 274 168 80 1 0 65 58 37 0 0 0 0 0 0 10 23 43 46 52 25 0 0 0
1741 1806 1804 1858 1773 1477 1652 1667 1542 1344 1179 992 793 585 467 345 219 167 60 285 201 228 165 7 6 118 24 33 4 0 0 0 0 26 19 66 41 6 1 0 0 0 0
1558 1478 1427 1367 1283 1304 1185 997 832 764 586 307 180 192 196 194 183 196 380 308 250 149 181 39 63 132 68 53 23 22 7 2 0 11 22 24 2 1 0 0 0 0 1
1354 1189 1034 967 877 771 580 359 152 77 33 38 79 149 156 227 265 422 376 326 208 128 87 60 77 95 100 53 64 85 26 17 1 0 0 0 0 0 0 1 0 1 2
1082 957 859 760 569 312 164 120 31 11 0 96 151 39 10 1 0 17 170 187 123 75 0 36 14 27 48 78 86 117 52 25 18 0 0 0 1 0 1 1 0 0 0
780 702 590 404 252 65 7 5 30 40 109 140 77 19 5 0 0 0 109 147 2 3 9 10 36 24 13 7 23 100 23 2 0 0 0 0 0 0 0 2 0 0 0
530 384 276 14 2 0 4 41 51 45 55 120 47 5 0 0 0 0 112 87 45 58 62 62 85 22 11 44 59 7 1 0 0 0 0 0 0 0 0 0 0 1 1
134 63 12 11 4 8 70 87 32 49 89 97 3 0 0 0 0 0 25 34 25 17 21 57 46 20 0 38 9 0 0 0 0 0 0 0 0 0 0 0 0 1 3
3 8 5 5 5 34 75 63 32 16 20 58 29 0 0 0 0 0 1 9 11 9 0 0 0 0 0 1 0 0 0 0 0 0 0 0 0 0 0 0 0 0 1
1 8 8 3 13 40 97 22 17 15 90 77 4 0 0 0 0 0 0 2 3 1 0 0 0 0 0 0 0 0 0 0 0 0 1 0 0 1 0 0 0 0 0
15 6 2 12 81 73 33 40 19 66 58 42 0 0 0 0 0 0 1 0 0 1 0 0 0 0 0 0 0 0 0 0 0 1 1 1 2 1 0 0 0 0 0
15 11 6 17 20 18 11 45 33 79 64 10 0 0 0 0 0 0 0 0 0 0 0 0 0 0 0 0 0 0 0 0 0 1 1 1 0 0 0 0 0 0 0
15 7 10 12 14 6 10 21 9 1 55 40 7 0 0 0 0 0 0 0 0 0 0 0 0 0 0 0 0 0 0 0 0 0 1 0 0 0 0 0 0 0 0
3 12 34 49 18 1 0 0 12 0 61 93 29 0 0 2 0 0 0 0 1 0 0 1 0 1 1 1 1 1 0 0 0 1 1 0 0 0 0 0 0 0 0
8 23 84 83 7 0 0 0 0 0 0 14 16 1 0 0 0 0 0 0 0 0 0 0 1 1 0 0 1 1 1 1 0 0 0 0 0 0 0 0 0 0 0
7 55 133 152 18 0 0 0 0 0 0 0 0 0 0 0 0 0 0 0 0 0 0 0 0 0 0 0 0 0 0 0 0 0 0 0 0 0 0 0 0 0 0
94 63 149 208 133 7 0 0 0 0 0 0 0 0 0 0 0 0 0 0 0 0 0 0 0 0 0 0 0 0 0 0 0 0 0 0 0 0 0 0 0 0 0
118 147 171 208 134 33 0 0 0 0 0 0 0 0 0 0 0 0 0 0 0 0 0 0 0 3 2 5 9 3 0 0 0 0 1 7 1 0 0 0 0 0 0
72 58 121 114 215 79 31 11 0 0 0 0 0 0 0 0 0 0 0 0 0 0 1 11 17 7 7 0 8 12 2 2 10 11 7 20 14 21 23 13 10 2 0
11 44 66 203 158 263 238 39 0 0 0 0 0 0 0 0 0 0 0 0 0 21 21 14 6 26 27 35 42 24 32 33 36 39 34 30 21 10 9 5 4 0 0
70 72 101 191 276 199 287 164 31 30 7 0 0 0 0 0 0 0 0 0 1 1 0 8 0 0 0 0 1 21 24 23 25 28 33 22 23 6 13 9 3 0 1
45 32 62 43 30 94 147 314 205 180 17 0 0 0 2 0 0 2 0 0 0 0 0 0 0 0 0 0 0 0 0 0 0 0 7 42 34 37 12 17 29 8 8
0 2 0 0 0 0 4 22 1 13 26 0 0 0 0 0 0 0 0 0 0 0 0 0 0 0 0 0 0 0 0 0 0 0 0 12 16 29 61 76 46 81 46
0 0 0 0 0 0 0 0 0 0 0 0 0 0 0 0 0 0 0 0 0 0 0 0 0 0 0 0 0 0 0 0 0 0 0 0 0 0 0 0 0 0 0
0 0 0 0 0 0 0 0 0 0 0 0 0 0 0 0 0 0 0 0 0 0 0 0 0 0 0 0 0 0 0 0 0 0 0 0 0 0 0 0 0 0 0
CIN
-108 -79 -48 -35 -32 -58 -77 -119 -146 -155 -143 -116 -45 -14 -9 -15 -13 -29 -32 -36 -31 -42 -44 -43 -52 -38 -48 -58 -43 0 -9 -7 0 0 -43 -30 -24 -36 -54 -75 -95 0 0
-47 -29 -24 -17 -28 -54 -106 -64 -75 -40 -16 -28 -8 -14 -11 -8 -21 -43 -53 -26 -23 -25 -34 -62 -4 -30 -38 -46 0 0 0 -1 0 0 -20 -23 -31 -45 -43 -66 -1 0 0
-47 -43 -33 -32 -34 -44 -34 -36 -29 -17 -11 -16 -14 -14 -16 -23 -51 -66 -101 -19 -32 -28 -23 -52 -73 -27 -47 -40 -23 0 0 0 0 -29 -28 -9 -14 -30 0 0 0 0 0
-37 -56 -47 -40 -39 -40 -38 -36 -35 -26 -24 -44 -30 -28 -43 -45 -53 -54 -17 -22 -21 -28 -28 -58 -40 -25 -32 -33 -36 -44 -55 -64 -21 -37 -32 -17 -18 0 0 0 0 0 0
-50 -58 -62 -73 -64 -60 -60 -69 -106 -142 -163 -159 -112 -79 -74 -49 -41 -20 -20 -30 -38 -34 -36 -41 -45 -48 -28 -35 -39 -44 -42 -56 -62 0 0 -3 -2 -0 0 0 0 0 0
-43 -59 -58 -73 -72 -80 -101 -114 -176 -202 -3 -84 -63 -123 -59 -89 0 -91 -49 -38 -42 -52 -7 -61 -86 -83 -56 -40 -33 -51 -67 -92 -93 0 0 -8 -0 0 0 0 0 0 0
-58 -69 -69 -78 -75 -111 -3 -4 -183 -160 -119 -69 -76 -58 -100 0 0 0 -45 -29 -63 -58 -38 -52 -69 -109 -79 -72 -68 -61 -84 -77 0 0 0 0 0 0 0 0 0 0 0
-74 -97 -94 -110 -8 -2 -5 -165 -163 -188 -148 -67 -125 -78 0 0 0 0 -33 -40 -49 -36 -30 -43 -46 -84 -78 -60 -71 -86 -42 0 0 0 0 0 0 0 0 0 0 0 0
-120 -145 -22 -6 -15 -7 -128 -134 -183 -145 -98 -75 -67 0 0 0 0 0 -72 -68 -60 -57 -59 -52 -60 -72 0 -93 -118 0 0 0 0 -1 0 0 0 -0 0 0 0 0 0
-155 -180 -17 -15 -11 -167 -134 -159 -177 -174 -83 -54 -75 0 0 0 0 0 -105 -94 -69 -77 0 0 0 0 -0 -10 -1 0 0 0 0 0 0 0 0 0 0 0 0 0 0
-80 -206 -33 -20 -19 -179 -129 -149 -126 -98 -40 -47 -59 0 0 0 0 0 0 -119 -86 -81 -47 0 0 0 0 0 0 0 0 0 0 0 0 0 0 0 0 0 0 0 -0
-145 -25 -28 -26 -120 -146 -191 -144 -74 -37 -34 -34 0 0 0 0 0 0 -4 -3 0 -30 0 0 0 0 0 0 0 0 0 0 0 0 0 0 0 0 0 0 0 0 0
-25 -46 -38 -27 -39 -28 -19 -63 -60 -22 -24 -46 0 0 0 0 0 0 0 0 0 0 0 0 0 0 0 0 0 0 0 0 0 0 0 0 0 0 0 0 0 0 0
-46 -32 -36 -34 -27 -26 -25 -24 -20 -2 -19 -27 -43 0 0 0 0 0 0 0 0 0 0 0 0 0 0 0 0 0 0 0 0 0 0 0 0 0 0 0 0 0 0
-52 -40 -48 -72 -60 -48 0 0 -42 0 -14 -37 -51 0 0 0 0 0 0 0 0 0 0 0 0 0 0 0 0 0 0 0 0 0 0 0 0 0 0 0 0 0 0
-46 -49 -59 -60 -83 -56 0 0 0 0 0 -52 -54 -29 0 0 0 -2 0 0 0 0 0 0 0 0 0 -0 0 0 0 0 0 0 0 0 0 0 0 0 0 0 0
-45 -60 -40 -49 -77 -3 0 0 0 0 0 0 -3 0 0 0 0 0 0 0 0 0 0 0 0 0 0 -0 -0 -0 0 0 0 0 0 0 0 0 0 0 0 0 0
-41 -49 -31 -43 -67 -90 0 0 0 0 0 0 0 0 0 0 0 0 0 0 0 0 0 0 0 0 0 0 0 0 0 0 0 0 0 0 0 0 0 0 0 0 0
-23 -27 -28 -31 -58 -100 -17 0 0 0 0 0 0 0 0 0 0 0 0 0 0 -16 -32 0 -12 -49 -23 -66 -62 -77 0 0 0 0 -42 -62 -43 -32 0 0 0 0 0
-24 -55 -30 -42 -67 -75 -84 -87 0 0 0 0 0 0 0 0 0 0 0 0 0 0 -46 -50 -38 -43 -65 -40 -62 -47 -43 -83 -81 -75 -78 -74 -72 -58 -49 -50 -45 -42 0
-58 -60 -52 -41 -74 -78 -69 -95 0 0 0 0 0 0 0 0 0 0 0 -16 -29 -48 -56 -55 -42 -34 -43 -51 -56 -62 -56 -56 -59 -69 -61 -58 -38 -48 -38 -42 -26 -0 0
-61 -34 -53 -32 -49 -59 -80 -122 -132 -128 -60 0 0 0 0 0 0 0 0 -43 -10 -40 0 -41 0 0 0 -21 -54 -59 -49 -51 -51 -64 -50 -41 -36 -37 -27 -19 -21 -0 -13
-97 -59 -59 -70 -111 -93 -76 -49 -64 -48 -82 0 0 0 -32 -25 0 -40 0 0 0 0 0 0 0 0 0 0 0 0 0 0 0 0 -111 -31 -28 -25 -25 -22 -23 -19 -28
0 -30 -32 0 0 -14 -92 -120 -13 -115 -113 -0 0 0 0 0 0 0 0 0 0 0 0 0 0 0 0 0 0 0 0 0 0 0 -4 -99 -88 -75 -60 -61 -83 -61 -61
0 0 0 0 0 0 0 0 0 0 0 0 0 0 0 0 0 0 0 0 0 0 0 0 0 0 0 0 0 0 0 0 0 0 0 0 0 0 0 0 0 0 0
0 0 0 0 0 0 0 0 0 0 0 0 0 0 0 0 0 0 0 0 0 0 0 0 0 0 0 0 0 0 0 0 0 0 0 0 0 0 0 0 0 0 0
Wind_Speed
12 11 9 9 5 4 4 4 4 1 3 4 5 5 5 4 4 4 4 5 4 4 5 6 5 7 8 8 10 11 11 9 16 15 17 15 16 30 23 10 7 6 15
9 7 5 5 5 3 1 3 6 5 7 8 7 6 6 5 4 5 6 7 3 4 4 5 4 5 6 7 9 11 18 18 4 1 11 13 7 1 9 5 6 10 13
4 4 4 6 5 4 5 6 7 8 9 8 8 7 5 4 5 5 5 6 4 3 5 4 4 6 5 6 10 11 7 11 9 15 2 9 10 2 4 5 4 7 11
7 7 6 5 5 6 7 7 8 8 9 8 6 5 6 5 5 5 6 7 6 5 5 5 5 5 5 4 8 13 10 5 6 11 12 1 8 10 6 3 5 10 9
8 8 7 7 8 7 6 5 6 7 8 7 7 7 7 7 8 8 10 9 8 6 5 7 9 12 7 7 5 7 10 6 7 7 6 11 11 5 3 11 3 4 10
9 9 9 10 7 7 6 6 7 8 9 10 10 9 8 9 10 12 12 11 10 7 7 6 10 15 4 7 7 10 12 15 11 8 9 2 12 3 3 7 7 5 13
11 10 9 7 7 6 8 9 10 9 10 10 10 9 9 10 11 13 13 11 11 10 9 6 4 11 3 3 4 6 7 9 14 10 15 12 5 10 11 8 6 10 11
12 7 8 5 6 8 10 10 10 9 10 10 11 10 10 10 12 13 13 13 11 11 8 12 10 7 6 5 4 4 4 3 3 4 3 7 7 5 9 6 4 3 3
9 8 7 10 11 10 10 12 9 8 9 10 12 11 11 12 12 13 13 13 12 9 7 7 7 6 5 5 2 3 3 8 9 1 3 2 7 8 5 6 9 12 10
11 11 12 11 11 10 11 11 9 9 8 9 11 12 12 13 13 13 13 12 12 9 7 5 5 4 2 7 4 2 2 8 5 3 1 2 4 7 14 16 17 14 13
12 13 12 12 15 13 13 12 11 10 11 11 11 12 13 14 14 14 13 12 10 8 6 5 5 5 3 5 3 2 2 4 1 4 5 3 2 4 9 3 4 12 9
15 15 15 14 14 15 14 13 12 12 11 11 12 12 13 14 15 14 13 12 10 7 6 5 3 3 3 4 3 7 7 3 2 2 2 2 2 2 3 2 3 3 20
15 15 14 16 15 15 15 13 12 14 11 12 13 14 14 14 15 15 12 10 9 7 5 3 4 6 5 7 11 10 4 1 1 1 1 3 4 1 3 9 20 28 24
17 16 15 17 15 13 13 13 15 16 15 16 16 16 15 11 17 19 14 12 11 11 8 2 0 3 6 12 8 3 8 8 5 4 9 12 17 25 23 23 21 18 26
17 16 14 14 13 10 7 4 7 18 23 20 17 19 19 22 22 22 22 19 14 18 11 3 2 2 1 8 10 11 9 6 11 12 10 14 12 3 13 18 19 27 26
17 16 16 15 13 14 13 5 7 13 12 22 18 19 6 16 21 23 25 25 25 21 4 1 4 1 6 14 2 4 4 7 9 6 3 5 4 3 3 14 26 27 27
19 21 20 17 18 18 16 13 4 3 5 3 11 19 15 16 20 24 26 30 31 27 30 9 18 31 29 27 22 13 6 9 14 6 9 11 9 2 7 28 29 28 27
22 22 22 22 22 19 17 15 12 5 7 4 5 14 12 19 21 22 26 25 28 22 30 31 28 27 27 27 27 28 28 8 27 29 30 30 30 30 28 27 27 27 27
19 23 23 14 17 17 20 21 14 7 10 11 10 7 6 15 19 24 26 6 10 28 27 26 25 26 26 25 26 26 27 28 28 30 29 29 29 28 27 27 26 25 24
15 20 11 22 18 22 12 14 20 15 16 21 19 18 15 16 17 28 29 20 20 23 24 25 22 22 23 23 23 24 24 25 26 27 28 28 27 27 28 27 27 26 24
21 24 19 24 16 18 14 15 17 22 13 23 25 26 26 24 26 29 29 24 20 18 23 21 23 23 24 24 24 24 23 23 24 23 23 25 26 27 28 28 19 22 30
8 12 15 23 6 17 13 19 22 20 17 18 18 20 7 3 15 27 16 12 10 8 9 9 8 8 8 10 10 12 16 17 18 22 24 25 26 25 9 24 26 27 29
5 5 5 1 7 9 9 10 12 12 12 12 17 20 3 7 4 14 6 6 7 9 9 9 9 9 10 11 12 13 12 14 18 19 20 22 28 28 29 31 31 32 34
3 4 8 4 1 2 5 7 6 10 13 12 9 4 5 7 8 9 8 7 8 9 9 10 10 10 10 11 12 13 14 15 17 17 19 19 19 18 20 21 22 23 23
4 1 0 3 2 4 7 7 6 6 7 7 7 7 7 8 10 10 11 11 11 10 12 13 13 14 15 15 16 16 17 17 18 18 18 18 20 23 24 25 27 28 29
1 1 2 1 2 4 4 5 3 4 5 6 6 7 7 8 9 9 10 10 12 13 12 15 16 17 17 18 19 19 20 20 21 22 22 23 23 25 26 28 30 31 33
Wind_Direction
261 263 250 249 206 202 235 273 283 283 113 120 120 111 104 77 76 30 21 9 19 33 25 29 34 31 14 34 25 40 34 27 264 254 232 234 224 157 205 236 237 241 230
258 253 227 172 162 185 144 110 112 100 103 107 101 94 83 69 47 13 359 358 42 53 50 30 44 65 48 58 61 64 129 202 344 355 234 235 246 236 226 220 236 235 230
199 156 146 143 139 123 106 96 101 102 101 95 93 89 75 49 15 7 28 13 48 59 25 39 25 34 44 16 90 81 310 257 67 90 267 246 232 235 214 226 232 233 227
147 133 130 124 111 103 94 91 87 92 93 85 70 67 74 70 39 46 38 5 360 9 11 23 356 84 75 2 89 102 78 35 56 78 87 238 227 224 226 192 216 223 220
147 136 127 112 101 97 88 79 68 68 74 58 39 29 24 29 1 9 359 8 11 22 56 3 312 279 105 109 74 75 89 68 92 88 81 228 227 230 153 224 143 197 222
140 125 113 102 96 88 78 70 76 78 83 71 61 49 32 3 350 344 359 10 21 54 75 14 287 265 317 287 287 105 108 114 106 100 244 169 230 116 137 117 123 139 218
129 118 107 100 92 84 85 89 85 77 77 78 55 31 20 6 356 359 5 30 26 16 62 38 320 263 27 325 288 79 85 101 115 115 129 127 134 113 116 123 130 222 223
117 106 103 86 80 86 88 86 83 70 69 62 55 43 30 7 10 15 31 41 12 8 32 88 87 73 63 55 70 53 49 304 315 275 144 231 231 128 125 167 151 186 185
105 96 91 93 94 94 86 93 78 61 56 59 61 43 36 24 27 32 34 26 20 356 342 55 66 63 57 69 55 47 4 260 253 337 228 190 123 125 164 145 124 122 226
97 92 92 98 98 95 92 87 72 69 58 56 52 42 39 37 32 35 38 31 37 31 3 353 18 4 356 86 63 29 18 246 246 241 211 110 131 126 127 133 130 132 228
87 85 78 89 101 99 95 89 80 77 74 66 48 35 36 37 33 42 33 42 40 12 354 339 339 47 54 65 56 327 266 242 254 240 248 252 196 157 241 161 157 136 146
92 85 86 90 96 100 94 89 86 89 80 71 58 38 28 32 45 32 25 47 44 357 351 333 359 37 45 43 357 88 97 80 270 257 259 258 136 162 234 161 224 213 235
93 87 88 94 96 95 95 90 91 100 89 83 70 61 53 44 36 34 28 25 19 2 358 28 67 63 47 58 85 91 80 45 68 330 251 250 245 50 271 246 229 156 224
90 90 86 89 90 86 87 94 103 108 105 104 94 81 69 30 176 82 39 30 31 48 61 68 314 45 64 84 79 259 248 244 249 257 242 234 222 198 207 214 221 235 227
89 86 75 81 77 65 39 344 261 224 149 123 111 114 105 133 131 111 96 74 59 79 69 50 233 222 212 234 238 240 253 266 245 242 237 226 231 260 244 230 231 205 204
93 87 85 82 74 81 74 8 279 241 245 128 102 98 314 77 96 100 97 95 89 85 35 50 70 110 86 219 323 308 306 273 255 252 237 226 243 52 72 233 202 202 200
97 99 97 83 89 87 81 80 40 300 22 342 62 91 74 79 89 96 98 104 108 138 111 71 88 144 155 143 119 89 61 89 101 84 99 102 96 76 243 193 192 201 205
106 107 105 102 99 89 86 82 75 64 59 7 350 68 71 88 93 95 101 94 138 154 133 112 112 121 137 140 151 154 166 185 147 171 165 168 158 175 193 198 201 202 203
103 113 113 85 88 85 91 93 78 60 62 65 62 53 55 79 91 101 107 86 209 131 120 139 148 136 127 115 131 137 144 146 152 168 181 189 194 203 208 205 199 192 195
89 102 85 98 86 98 80 79 85 78 79 90 89 89 86 87 94 123 141 186 185 166 163 136 107 109 116 116 123 123 129 138 148 158 172 190 206 216 220 227 220 212 203
109 124 105 113 85 89 81 80 80 90 77 91 97 103 108 103 114 129 152 176 187 192 150 110 132 119 123 134 133 136 134 137 152 155 165 189 214 235 239 245 293 288 241
101 97 96 119 76 94 84 90 91 86 79 87 83 83 58 211 110 133 204 231 238 274 276 297 349 344 322 306 307 288 253 256 258 253 251 228 223 213 187 285 283 283 283
102 71 62 87 245 78 78 83 74 71 67 75 81 81 320 45 303 196 349 354 330 330 324 341 347 333 324 327 324 318 312 295 284 286 290 281 263 268 273 273 282 284 282
80 62 66 69 28 79 68 79 69 72 79 81 75 39 25 23 27 37 33 14 5 8 7 8 5 354 337 333 332 335 332 312 300 310 309 310 312 319 318 319 320 321 322
51 71 35 159 132 75 78 92 80 76 77 68 56 45 32 30 33 36 34 34 25 18 16 15 11 8 5 1 357 355 344 340 340 340 337 337 328 323 318 318 315 316 319
37 8 81 166 26 49 61 73 93 72 60 50 39 29 20 17 15 16 15 17 19 21 15 14 14 13 9 1 356 353 348 348 346 342 339 335 330 325 324 321 319 318 316